Home   Weather   Fellbach   Past weeks

Flag for Germany Past Weather in Fellbach, Baden-Württemberg, Germany — Yesterday and Last 2 Weeks

Now
32 °F

Sunny.


Feels Like: 32 °F
Forecast: 12 / 27 °F
Wind: 1 mph from North

Location: Stuttgart-Echterdingen

Current Time: Jan 21, 2017 at 4:18:30 pm

Latest Report: Jan 21, 2017 at 3:50 pm


Visibility: 10 mi

Pressure: 30.30 "Hg

Humidity: 60%

Dew Point: 19 °F

Location of FellbachLocation

Past Weather in Fellbach — Graph

°F

Fellbach Temperature Yesterday

Maximum temperature yesterday: 32 °F (at 1:50 pm)
Minimum temperature yesterday: 14 °F (at 8:20 am)
Average temperature yesterday: 22 °F

High & Low Weather Summary for the Past Weeks

 TemperatureHumidityPressure
High43 °F (Jan 13, 12:20 am)100% (Jan 8, 6:50 am)30.66 "Hg (Jan 8, 6:50 am)
Low7 °F (Jan 7, 2:50 am)55% (Jan 20, 1:20 pm)29.33 "Hg (Jan 13, 12:20 am)
Average27 °F82%30.18 "Hg
* Reported Jan 6 3:20 pm — Jan 21 3:20 pm, Fellbach, Weather by CustomWeather, © 2017

Note: Actual official high and low records may vary slightly from our data, if they occured in-between our weather recording intervals... More about our weather records

Advertising

Fellbach Weather History for the Previous 24 Hours

Scroll right to see more
 ConditionsComfort  
Time TempWeatherWind HumidityBarometerVisibility
3:20 pm
Sat, Jan 21
32 °FSunny.1 mph60%30.30 "Hg10 mi
2:50 pm32 °FSunny.1 mph60%30.30 "Hg10 mi
2:20 pm30 °FClear.2 mph59%30.33 "Hg6 mi
1:50 pm28 °FClear.2 mph64%30.33 "Hg6 mi
1:20 pm27 °FClear.2 mph69%30.33 "Hg6 mi
12:50 pm27 °FClear.2 mph69%30.33 "Hg5 mi
12:20 pm27 °FClear.2 mph64%30.36 "Hg5 mi
11:50 am25 °FClear.2 mph69%30.36 "Hg4 mi
11:20 am21 °FClear.2 mph74%30.36 "Hg4 mi
10:50 am19 °FClear.2 mph79%30.39 "Hg4 mi
10:20 am16 °FClear.2 mph86%30.39 "Hg4 mi
9:50 am14 °FClear.2 mph92%30.39 "Hg4 mi
9:20 am14 °FClear.2 mph85%30.39 "Hg4 mi
8:50 am12 °FIce fog.1 mph92%30.39 "Hg3 mi
8:20 am10 °FIce fog.1 mph92%30.36 "Hg3 mi
7:50 am10 °FClear.1 mph92%30.36 "Hg4 mi
7:20 am10 °FClear.1 mph92%30.36 "Hg6 mi
6:50 am12 °FClear.2 mph85%30.36 "Hg5 mi
6:20 am10 °FClear.1 mph92%30.36 "Hg5 mi
5:50 am10 °FClear.1 mph85%30.36 "Hg4 mi
5:20 am12 °FClear.1 mph92%30.36 "Hg4 mi
4:50 am12 °FClear.1 mph92%30.39 "Hg4 mi
4:20 am12 °FClear.3 mph92%30.39 "Hg4 mi
3:50 am12 °FClear.2 mph92%30.39 "Hg4 mi
3:20 am14 °FClear.2 mph85%30.39 "Hg4 mi
2:50 am14 °FClear.2 mph85%30.39 "Hg4 mi
2:20 am14 °FClear.1 mph92%30.39 "Hg5 mi
1:50 am16 °FClear.1 mph86%30.39 "Hg5 mi
1:20 am18 °FClear.1 mph86%30.39 "Hg5 mi
12:50 am16 °FClear.2 mph86%30.42 "Hg6 mi
12:20 am16 °FClear.2 mph86%30.42 "Hg6 mi
11:50 pm
Fri, Jan 20
18 °FClear.1 mph79%30.42 "Hg6 mi
11:20 pm18 °FClear.1 mph86%30.42 "Hg10 mi
10:50 pm19 °FClear.2 mph79%30.42 "Hg10 mi
10:20 pm19 °FPassing clouds.3 mph79%30.42 "HgN/A
9:50 pm19 °FClear.2 mph79%30.42 "Hg10 mi
9:20 pm21 °FClear.2 mph80%30.42 "Hg10 mi
8:50 pm21 °FClear.1 mph74%30.42 "Hg10 mi
8:20 pm21 °FClear.2 mph80%30.42 "Hg10 mi
7:50 pm21 °FPassing clouds.5 mph80%30.42 "HgN/A
7:20 pm23 °FClear.5 mph74%30.42 "Hg10 mi
6:50 pm23 °FPassing clouds.6 mph74%30.42 "HgN/A
6:20 pm23 °FClear.8 mph74%30.42 "Hg10 mi
5:50 pm27 °FClear.9 mph69%30.42 "Hg10 mi
5:20 pm27 °FClear.9 mph69%30.39 "Hg10 mi
4:50 pm28 °FSunny.12 mph64%30.39 "Hg10 mi
4:20 pm30 °FSunny.10 mph59%30.39 "Hg10 mi
Weather by CustomWeather, © 2017

See weather overviewHow to use our weather pages